[[{"header":{"parameterUnit":"m.s-1","parameterCategory":1,"la1":30.2991,"la2":30.254,"lo1":-89.0895,"lo2":-89.0444,"dy":0.0017,"dx":0.0017,"nx":28,"ny":28,"refTime":"2025-07-12T21:00:00:Z","depth":0,"parameterNumber":2,"parameterNumberName":"U-component_of_WINDS"},"data":[0,0,0,0,0,0,0,0,0,0,0,0,0,0,0,0,0,0,0,0,0,0,0,0,0,0,0,0,0,0,0,0,0,0,0,0,0,0,0,0,0,0,0,0,0,0,0,0,0,0,0,0,0,0,0,0,0,0,-0.5664,-0.5664,0,-0.5658,-0.5658,-0.5658,-0.5642,-0.5642,-0.5641,-0.5641,-0.5637,-0.5637,-0.5637,0,0,0,0,0,0,0,0,0,0,0,0,0,-0.5661,-0.5661,-0.5664,-0.5664,-0.5664,-0.5658,-0.5658,-0.5658,-0.5642,-0.5642,-0.5641,-0.5641,-0.5637,-0.5637,-0.5637,0,0,0,0,0,0,0,0,0,0,0,0,0,-0.566,-0.5662,-0.5664,-0.5655,-0.5654,-0.5658,-0.5658,-0.5658,-0.5642,-0.5642,-0.5641,-0.5641,-0.5637,-0.5637,-0.5637,-0.565,0,0,-0.5638,-0.5639,0,0,0,0,0,0,0,0,-0.566,-0.566,-0.5656,-0.5655,-0.5654,-0.565,-0.5656,-0.5656,-0.5642,-0.5647,-0.5641,-0.564,-0.5642,-0.5642,-0.5642,-0.565,-0.565,-0.5638,-0.5639,-0.5639,-0.5639,0,0,0,0,0,0,0,-0.566,-0.566,-0.5662,-0.5656,-0.5655,-0.5652,-0.5651,-0.5656,-0.5647,-0.5646,-0.5645,-0.5645,-0.5641,-0.5642,-0.5642,-0.565,-0.5638,-0.5639,-0.5639,-0.5639,-0.567,-0.567,0,0,0,0,0,0,-0.5661,-0.566,-0.5662,-0.5661,-0.5656,-0.5652,-0.5651,-0.5652,-0.5647,-0.5646,-0.5645,-0.5644,-0.5641,-0.5641,-0.5642,-0.5657,-0.5639,-0.5639,-0.5639,-0.5669,-0.567,-0.567,0,0,0,0,0,0,-0.5661,-0.5662,-0.5662,-0.5661,-0.566,-0.5653,-0.5654,-0.5652,-0.5653,-0.5646,-0.5645,-0.5647,-0.5641,-0.5641,-0.5648,-0.5657,-0.5639,-0.564,-0.5668,-0.5669,-0.567,-0.5688,0,0,0,0,0,0,-0.5661,-0.5662,-0.5666,-0.5661,-0.566,-0.5668,-0.5654,-0.5653,-0.5653,-0.5652,-0.5648,-0.5647,-0.5641,-0.5648,-0.5649,-0.5657,-0.564,-0.5667,-0.5669,-0.567,-0.5686,-0.5689,-0.5692,0,0,0,0,0,-0.5661,-0.5671,-0.5666,-0.5667,-0.5666,-0.5669,-0.5669,-0.5661,-0.5654,-0.5659,-0.5655,-0.5647,-0.5656,-0.5649,-0.565,-0.5658,-0.5667,-0.5668,-0.567,-0.5685,-0.5689,-0.5691,0,0,0,0,0,0,-0.5678,-0.5671,-0.5665,-0.5674,-0.5672,-0.5666,-0.5672,-0.5665,-0.5666,-0.5664,-0.5655,-0.5655,-0.5663,-0.5661,-0.5654,-0.5671,-0.566,-0.5662,-0.5672,-0.5675,-0.5677,-0.5678,-0.564,0,0,0,0,0,-0.5683,-0.5686,-0.5679,-0.5687,-0.5687,-0.568,-0.5681,-0.5675,-0.5673,-0.5673,-0.5669,-0.5668,-0.5671,-0.5673,-0.5675,-0.5686,-0.5685,-0.5692,-0.5695,-0.5697,-0.5698,-0.5705,-0.5708,-0.5675,-0.5675,-0.5675,0,0,-0.5693,-0.5689,-0.5691,-0.5691,-0.5689,-0.5692,-0.5679,-0.5683,-0.5686,-0.5673,-0.568,-0.5678,-0.5676,-0.5686,-0.569,-0.5684,-0.5708,-0.5699,-0.57,-0.5701,-0.5707,-0.571,-0.5713,-0.5676,-0.5675,-0.5675,0,0,-0.5713,-0.571,-0.5717,-0.5715,-0.5712,-0.5707,-0.5709,-0.5705,-0.5702,-0.5709,-0.5699,-0.5703,-0.5707,-0.5707,-0.5707,-0.5727,-0.572,-0.5728,-0.5742,-0.5749,-0.5751,-0.5754,-0.5761,-0.5764,-0.573,-0.573,-0.573,0,-0.5725,-0.573,-0.5721,-0.5726,-0.5726,-0.5715,-0.5722,-0.5721,-0.5719,-0.572,-0.5714,-0.572,-0.5718,-0.5727,-0.5733,-0.5733,-0.5735,-0.5729,-0.5751,-0.5754,-0.5756,-0.5763,-0.5766,-0.5731,-0.5731,-0.5731,-0.5731,0,-0.5746,-0.5749,-0.5755,-0.5754,-0.5755,-0.5761,-0.5754,-0.5756,-0.575,-0.5746,-0.5754,-0.5751,-0.5753,-0.5754,-0.5749,-0.5764,-0.576,-0.5753,-0.5742,-0.576,-0.5767,-0.577,-0.5732,-0.5732,-0.5732,-0.5732,0,0,-0.5776,-0.577,-0.5772,-0.5772,-0.5768,-0.5771,-0.5777,-0.5778,-0.578,-0.578,-0.5785,-0.5789,-0.5783,-0.5783,-0.5778,-0.5783,-0.5801,-0.5775,-0.5775,-0.5781,-0.5818,-0.5823,-0.5827,-0.5796,-0.5796,-0.5797,-0.5818,0,-0.5795,-0.5805,-0.5797,-0.5808,-0.5812,-0.5801,-0.5806,-0.5805,-0.5802,-0.5805,-0.5801,-0.5805,-0.5795,-0.5795,-0.5801,-0.5797,-0.5808,-0.5796,-0.5801,-0.5802,-0.5803,-0.583,-0.5836,-0.5856,-0.582,-0.5821,-0.5821,0,-0.5819,-0.5819,-0.583,-0.5827,-0.5828,-0.5833,-0.5834,-0.5836,-0.5835,-0.5832,-0.5833,-0.5826,-0.5833,-0.5822,-0.5831,-0.5823,-0.5825,-0.5824,-0.5824,-0.5825,-0.5813,-0.5832,-0.5863,-0.5866,-0.5825,-0.5825,-0.5825,0,-0.5841,-0.5844,-0.5851,-0.5851,-0.5846,-0.585,-0.5849,-0.5847,-0.5848,-0.5849,-0.585,-0.5852,-0.5853,-0.5855,-0.5849,-0.5842,-0.586,-0.5848,-0.5858,-0.5859,-0.5863,-0.5863,-0.5894,-0.5863,-0.5863,-0.5863,-0.5863,0,-0.5863,-0.587,-0.5861,-0.5865,-0.5874,-0.5865,-0.5874,-0.5871,-0.587,-0.5874,-0.5865,-0.587,-0.5862,-0.5866,-0.5861,-0.587,-0.587,-0.5869,-0.5868,-0.587,-0.587,-0.5871,-0.587,-0.5864,-0.5864,-0.5864,-0.5864,0,-0.5889,-0.5882,-0.589,-0.5885,-0.5884,-0.589,-0.5887,-0.5891,-0.5887,-0.5893,-0.5894,-0.5888,-0.5892,-0.5887,-0.589,-0.5888,-0.59,-0.5896,-0.59,-0.5899,-0.591,-0.5909,-0.5944,-0.5948,-0.5914,-0.5914,-0.5914,0,-0.5903,-0.5909,-0.5905,-0.5907,-0.5906,-0.5909,-0.5911,-0.5903,-0.5905,-0.5904,-0.5909,-0.5912,-0.5915,-0.5922,-0.5919,-0.5922,-0.5919,-0.5931,-0.5919,-0.5921,-0.592,-0.5919,-0.592,-0.5933,-0.5933,-0.5934,-0.5934,0,-0.5931,-0.5927,-0.5929,-0.5931,-0.5933,-0.5933,-0.5934,-0.5936,-0.5928,-0.5931,-0.5935,-0.5937,-0.594,-0.5944,-0.5946,-0.5946,-0.5939,-0.5938,-0.594,-0.5943,-0.5945,-0.5945,-0.5907,-0.5937,-0.5937,-0.5937,-0.5936,-0.5936,-0.5952,-0.5956,-0.5954,-0.5957,-0.5956,-0.5957,-0.5961,-0.5958,-0.5961,-0.5963,-0.5958,-0.5964,-0.5963,-0.5965,-0.5965,-0.597,-0.5965,-0.5969,-0.597,-0.5971,-0.5973,-0.5944,-0.597,-0.597,-0.597,-0.597,-0.597,0,-0.5979,-0.5977,-0.598,-0.598,-0.5983,-0.5976,-0.5976,-0.5979,-0.5983,-0.5983,-0.5985,-0.5991,-0.5994,-0.5991,-0.5995,-0.5999,-0.5996,-0.6,-0.6,-0.6,-0.5977,-0.5974,-0.6003,-0.6003,-0.6003,-0.6003,-0.6003,-0.6003,-0.5993,-0.6001,-0.5998,-0.6005,-0.6003,-0.6008,-0.6009,-0.601,-0.601,-0.6016,-0.6019,-0.6016,-0.6015,-0.6019,-0.6022,-0.6021,-0.6023,-0.6029,-0.6027,-0.6005,-0.6002,-0.5999,-0.5997,-0.6029,-0.6029,-0.605,-0.605,-0.605]},{"header":{"parameterUnit":"m.s-1","parameterCategory":1,"la1":30.2991,"la2":30.254,"lo1":-89.0895,"lo2":-89.0444,"dy":0.0017,"dx":0.0017,"nx":28,"ny":28,"refTime":"2025-07-12T21:00:00:Z","depth":0,"parameterNumber":3,"parameterNumberName":"V-component_of_WINDS"},"data":[0,0,0,0,0,0,0,0,0,0,0,0,0,0,0,0,0,0,0,0,0,0,0,0,0,0,0,0,0,0,0,0,0,0,0,0,0,0,0,0,0,0,0,0,0,0,0,0,0,0,0,0,0,0,0,0,0,0,2.1428,2.1428,0,2.1463,2.1464,2.1464,2.1514,2.1515,2.1516,2.1516,2.1549,2.1549,2.1549,0,0,0,0,0,0,0,0,0,0,0,0,0,2.1398,2.1398,2.1428,2.1428,2.1429,2.1463,2.1464,2.1464,2.1514,2.1515,2.1516,2.1517,2.1549,2.1549,2.1549,0,0,0,0,0,0,0,0,0,0,0,0,0,2.142,2.1399,2.1428,2.1458,2.1461,2.1463,2.1464,2.1464,2.1513,2.1515,2.1516,2.1517,2.1548,2.1549,2.1549,2.1523,0,0,2.1549,2.1549,0,0,0,0,0,0,0,0,2.1419,2.1421,2.1453,2.1456,2.1459,2.1486,2.1465,2.1484,2.1513,2.1493,2.1516,2.1518,2.1526,2.1528,2.1532,2.1525,2.1526,2.1549,2.1549,2.1549,2.1549,0,0,0,0,0,0,0,2.1417,2.142,2.1442,2.1453,2.1457,2.1468,2.1472,2.1469,2.1502,2.1495,2.1499,2.1503,2.1528,2.1532,2.1533,2.1527,2.1549,2.1549,2.1549,2.1549,2.1497,2.1495,0,0,0,0,0,0,2.1412,2.1418,2.1441,2.1443,2.1442,2.1467,2.1472,2.1476,2.1502,2.1508,2.1501,2.1505,2.1531,2.1533,2.1534,2.1504,2.1549,2.1549,2.1549,2.1498,2.1496,2.1495,0,0,0,0,0,0,2.1411,2.1413,2.1439,2.1431,2.1436,2.1466,2.147,2.1476,2.1479,2.1507,2.1513,2.1499,2.1532,2.1534,2.1525,2.1506,2.1549,2.1549,2.15,2.1498,2.1496,2.1444,0,0,0,0,0,0,2.141,2.1413,2.1405,2.1431,2.1436,2.1431,2.1469,2.1475,2.148,2.1484,2.1506,2.1511,2.1533,2.1525,2.1525,2.1507,2.1549,2.1502,2.1499,2.1496,2.1448,2.1441,2.1435,0,0,0,0,0,2.1409,2.1389,2.1404,2.1406,2.1427,2.143,2.1432,2.1459,2.1478,2.1469,2.1487,2.1511,2.1508,2.1523,2.1524,2.1506,2.1503,2.15,2.1497,2.1451,2.1442,2.1435,0,0,0,0,0,0,2.1358,2.1393,2.141,2.1398,2.1411,2.1438,2.1428,2.1449,2.1456,2.146,2.1492,2.1496,2.1482,2.1493,2.151,2.1481,2.1509,2.1506,2.1474,2.1466,2.1459,2.1456,2.1549,0,0,0,0,0,2.1346,2.1347,2.1377,2.1363,2.1369,2.1397,2.1399,2.1419,2.1433,2.1438,2.1455,2.1465,2.1467,2.1467,2.1471,2.145,2.1454,2.1437,2.1431,2.1425,2.1421,2.1408,2.1401,2.1484,2.1484,2.1484,0,0,2.132,2.1339,2.1338,2.1354,2.1366,2.1364,2.1401,2.1399,2.1397,2.1437,2.1429,2.1442,2.1456,2.144,2.1434,2.1449,2.1399,2.1421,2.1416,2.1416,2.1404,2.1396,2.1389,2.1482,2.1483,2.1483,0,0,2.1272,2.1288,2.1277,2.1288,2.1306,2.1325,2.1322,2.1346,2.1356,2.1349,2.1378,2.1376,2.1379,2.1387,2.1391,2.1344,2.1365,2.1344,2.1309,2.1296,2.1289,2.1283,2.1264,2.1257,2.1341,2.134,2.134,0,2.1238,2.1238,2.1269,2.1264,2.1268,2.1306,2.1293,2.1302,2.1319,2.1321,2.1338,2.134,2.1353,2.1338,2.1326,2.133,2.1325,2.1341,2.1288,2.1282,2.1277,2.1259,2.1252,2.1338,2.1338,2.1338,2.1339,0,2.1193,2.1193,2.1182,2.1198,2.1202,2.1193,2.122,2.122,2.1239,2.1255,2.1245,2.1262,2.1267,2.1266,2.1284,2.1253,2.1261,2.1282,2.1311,2.1266,2.1249,2.1243,2.1334,2.1335,2.1335,2.1336,0,0,2.1115,2.1147,2.1142,2.1149,2.117,2.117,2.1162,2.1168,2.1166,2.1176,2.1168,2.1169,2.1188,2.1193,2.1213,2.1202,2.116,2.1224,2.1225,2.1209,2.1123,2.1105,2.1097,2.1174,2.1173,2.1172,2.1121,0,2.1069,2.1059,2.1085,2.1067,2.1065,2.1099,2.1092,2.1103,2.1117,2.1116,2.1132,2.1131,2.1158,2.1161,2.1151,2.1167,2.1142,2.1171,2.1165,2.1164,2.1158,2.1088,2.107,2.1021,2.1115,2.1114,2.1113,0,2.1015,2.1022,2.1004,2.1024,2.1025,2.1018,2.1024,2.1024,2.1036,2.1047,2.1052,2.1074,2.1066,2.1094,2.1081,2.11,2.1099,2.1106,2.1104,2.1103,2.1134,2.1083,2.1006,2.0997,2.1103,2.1104,2.1105,0,2.0956,2.0962,2.0951,2.0956,2.098,2.0974,2.0983,2.0997,2.0998,2.1004,2.1004,2.1009,2.101,2.1012,2.1034,2.1053,2.1016,2.1048,2.1023,2.1022,2.1012,2.1012,2.0932,2.1015,2.1015,2.1016,2.1016,0,2.0901,2.0888,2.0924,2.0918,2.0903,2.0932,2.0916,2.0929,2.0941,2.0935,2.0965,2.0959,2.099,2.0986,2.1003,2.0988,2.0989,2.0996,2.1,2.0992,2.099,2.099,2.0993,2.1014,2.1014,2.1014,2.1015,0,2.0833,2.0857,2.0847,2.087,2.0876,2.0864,2.0883,2.0876,2.0892,2.0885,2.0884,2.0909,2.0906,2.0929,2.093,2.0942,2.0917,2.0928,2.0913,2.0915,2.0888,2.089,2.0803,2.0792,2.0885,2.0884,2.0883,0,2.0795,2.0786,2.0808,2.0807,2.0815,2.0813,2.0814,2.0842,2.0842,2.0854,2.0845,2.0845,2.0846,2.084,2.0856,2.0857,2.0867,2.0836,2.0867,2.0858,2.0863,2.0863,2.086,2.0829,2.0828,2.0827,2.0826,0,2.0725,2.0737,2.0739,2.0744,2.0745,2.075,2.0757,2.0754,2.0784,2.0782,2.078,2.078,2.0781,2.0779,2.0783,2.0791,2.0812,2.0817,2.0811,2.0801,2.0791,2.0794,2.0893,2.0818,2.0819,2.082,2.082,2.0821,2.067,2.0662,2.0675,2.0675,2.0684,2.0689,2.0683,2.0698,2.0697,2.0701,2.0717,2.0711,2.0721,2.0728,2.0733,2.0728,2.0742,2.0734,2.0731,2.0728,2.0722,2.0794,2.0729,2.0729,2.0729,2.0729,2.073,0,2.0599,2.0609,2.0609,2.0617,2.0616,2.0639,2.0647,2.0644,2.0639,2.0647,2.0647,2.0643,2.0641,2.0657,2.0657,2.0649,2.0658,2.0647,2.0647,2.0648,2.0711,2.0715,2.0639,2.0639,2.0639,2.0639,2.064,2.064,2.0562,2.0549,2.0562,2.0552,2.0562,2.0557,2.056,2.0564,2.057,2.0564,2.0563,2.0574,2.0585,2.0585,2.0583,2.0588,2.0585,2.057,2.0578,2.0635,2.0644,2.0652,2.0656,2.057,2.057,2.0515,2.0515,2.0514]}]]